Location: Eckley
(40.9930°N, 75.8630°W)
Time: 13:55:48
(UTC-05:00)

Daily predictions for brighter satellites

Satellite Brightness Start Highest point End
(mag) Time Altitude Azimuth Time Altitude Azimuth Time Altitude Azimuth
Cosmos 2082 4.3 17:00:37 10° N 17:05:44 34° ENE 17:10:50 10° ESE
Cosmos 2026 Rocket 4.2 17:01:34 10° N 17:07:58 85° W 17:14:16 10° S
CENTAUR R/B 4.2 17:04:48 10° NNW 17:10:22 21° NNE 17:16:17 10° ENE
Cosmos 1655 Rocket 4.1 17:04:02 10° N 17:10:27 73° E 17:16:49 10° SSE
SJ-12 4.1 17:06:57 10° S 17:11:05 83° WSW 17:15:12 10° NNW
BREEZE-M DEB (TANK) 4.2 17:09:22 10° W 17:11:26 31° SSW 17:15:22 10° SSE
Abrixas rocket 3.6 17:08:57 10° WNW 17:11:49 28° NNW 17:14:41 10° NE
PSLV R/B 3.3 17:12:48 10° WSW 17:15:58 68° SSE 17:19:05 10° E
Cosmos 2227 Rocket 2.3 17:12:09 10° NNW 17:17:42 53° ENE 17:23:12 10° SE
CZ-2C R/B 3.6 17:13:43 10° S 17:18:44 50° W 17:23:45 10° NNW
ISS -3.8 17:16:16 10° NW 17:19:33 86° SW 17:22:50 10° SE
SJ-7 4.3 17:15:45 10° SSE 17:19:43 70° ENE 17:23:42 10° N
ERS-2 3.7 17:20:14 10° ESE 17:22:35 16° ENE 17:24:56 10° NNE
CORIOLIS 4.2 17:17:29 10° SSE 17:22:47 58° ENE 17:28:05 10° N
Cosmos 1455 Rocket 3.0 17:18:36 10° N 17:23:00 64° E 17:27:20 10° SSE
Cosmos 2219 4.2 17:19:01 10° NNW 17:24:27 52° WSW 17:29:52 10° S
Cosmos 1544 Rocket 3.5 17:22:54 10° N 17:27:17 78° E 17:31:36 10° S
Ariane Rocket 2.9 17:23:45 10° SSE 17:28:48 79° ENE 17:33:52 10° N
Cosmos 1271 Rocket 2.8 17:26:46 10° N 17:30:34 83° W 17:34:25 10° S
Meteor 2-9 Rocket 4.2 17:25:24 10° N 17:30:48 55° ENE 17:36:03 10° SSE
YAOGAN 1 2.9 17:28:44 10° SE 17:32:48 42° ENE 17:36:54 10° N
USA 161 4.1 17:30:34 10° NNW 17:32:52 21° WNW 17:35:14 10° SW
USA 116 3.5 17:30:50 10° NNE 17:33:52 42° E 17:36:49 10° S
Cosmos 1980 Rocket 3.5 17:31:00 10° SE 17:35:02 20° E 17:37:46 15° ENE
AQUARIUS 4.2 17:33:18 10° SSE 17:37:47 88° WSW 17:42:19 10° NNW
USA 238 DEB 3.8 17:31:56 10° NW 17:39:06 87° NE 17:46:19 10° SE
USA 238 3.8 17:32:03 10° NW 17:39:12 86° NE 17:46:25 10° SE
Cosmos 1269 Rocket 4.3 17:34:13 10° N 17:39:19 45° ENE 17:44:23 10° SE
Cosmos 1125 Rocket 3.5 17:35:54 10° S 17:41:09 68° ESE 17:46:25 10° NNE
Cosmos 2297 Rocket 2.1 17:38:40 10° NNW 17:44:21 74° ENE 17:49:59 10° SSE
Atlas Centaur 2 4.1 17:40:29 10° WSW 17:44:40 21° SSW 17:48:14 10° SSE
Cosmos 389 Rocket 4.4 17:43:59 10° NNW 17:47:08 32° W 17:50:14 10° SSW
Cosmos 1484 Rocket 3.6 17:43:20 10° S 17:47:16 56° W 17:51:15 10° NNW
COSMO-SKYMED 1 2.9 17:44:53 10° NNE 17:49:03 44° E 17:53:12 10° S
Cosmos 1656 3.6 17:44:08 10° SSW 17:49:41 72° ESE 17:55:06 10° NNE
Cosmos 1666 3.6 17:46:03 10° NNW 17:49:41 49° W 17:53:17 10° S
Cosmos 1048 Rocket 4.0 17:44:33 10° NNW 17:49:57 70° ENE 17:55:17 10° SSE
CZ-2C R/B 3.7 17:45:38 10° NNE 17:50:21 80° ESE 17:55:07 10° S
IRS-1A Rocket 4.2 17:45:11 10° SSE 17:50:46 77° ENE 17:56:18 10° NNW
SJ 16-02 1.3 17:49:10 10° SSW 17:53:33 87° ESE 17:57:58 10° NNE
MONITOR-E 4.5 17:54:27 10° SE 17:57:20 40° ENE 18:00:14 10° N
Cosmos 372 Rocket 4.0 17:52:31 10° SSW 17:57:44 89° WNW 18:02:56 10° NNE
Cosmos 724 4.2 17:56:16 10° NNW 18:02:06 88° NE 18:07:55 10° SSE
SMAP 4.2 17:58:01 10° S 18:02:29 47° W 18:07:00 10° NNW
Meteor 2-4 Rocket 3.9 18:02:10 10° SSW 18:07:35 69° W 18:12:57 10° N
NOSS 3-2 (A) 4.0 18:00:22 10° NNW 18:07:58 79° NE 18:16:13 10° SE
RESURS DK-1 3.9 18:06:08 10° SSE 18:08:21 20° ESE 18:08:21 20° ESE
MTI 3.7 18:07:57 22° NNE 18:09:56 89° ESE 18:13:11 10° SSW
NOAA 12 4.0 18:08:15 10° SSE 18:13:25 60° ENE 18:18:35 10° N
NOSS 3-2 (C) 4.0 18:08:03 10° NNW 18:15:36 70° NE 18:23:49 10° SE
Okean 1-7 Rocket 3.8 18:11:26 10° SSE 18:15:36 44° E 18:16:45 36° NE
SL-16 R/B 4.3 18:13:29 10° SE 18:13:29 10° SE 18:13:29 10° SE
BREEZE-M DEB (TANK) 3.9 18:13:22 10° WNW 18:16:31 50° SSW 18:26:33 10° SE
ALOS 2.1 18:11:57 10° SSE 18:16:34 67° ENE 18:21:13 10° N
DELTA 2 R/B (1) 3.6 18:11:32 10° W 18:17:05 75° S 18:20:00 29° ESE
Cosmos 1025 Rocket 2.9 18:13:28 10° S 18:17:43 63° E 18:19:59 26° NNE
Cosmos 2369 4.2 18:13:34 10° SW 18:19:09 58° WNW 18:24:31 11° NNE
Cosmos 2278 4.2 18:14:07 10° SW 18:19:43 60° WNW 18:24:58 12° NNE
Cosmos 2263 Rocket 4.2 18:17:24 10° NNE 18:17:42 11° NNE 18:17:42 11° NNE
Cosmos 2322 Rocket 4.3 18:18:20 10° SE 18:18:21 10° SE 18:18:21 10° SE
ATLAS 2AS CENTAUR R/B 4.1 18:14:36 10° WSW 18:21:52 39° NW 18:29:08 11° NNE
ATLAS 3B R/B 3.5 18:15:33 10° NW 18:21:55 51° WSW 18:28:08 10° S
FENGYUN 3A 3.5 18:17:12 10° SSE 18:22:33 74° ENE 18:27:55 10° N
Cosmos 2360 4.4 18:17:43 10° S 18:23:10 47° ESE 18:24:59 35° ENE
METEOR-M 4.5 18:18:37 10° S 18:23:54 66° WSW 18:29:14 10° NNW
CZ-4 R/B 3.3 18:21:56 10° SSW 18:25:23 30° W 18:28:54 10° NW
Cosmos 1241 Rocket 4.4 18:20:08 10° SSW 18:26:31 90° SE 18:30:28 25° NNE
USA 215 4.3 18:24:06 10° SSE 18:30:18 45° SW 18:36:32 10° WNW
Cosmos 2084 3.1 18:28:09 10° SSW 18:32:20 80° ESE 18:32:45 69° ENE
DNEPR-1 R/B 4.2 18:29:44 10° NNW 18:34:46 54° NE 18:36:20 42° ESE
EO 1 Del DPAF 3.6 18:33:38 29° N 18:35:26 63° WNW 18:39:12 10° SSW
Nadezhda 2 Rocket 4.5 18:29:43 10° N 18:36:05 88° W 18:42:29 10° S
SKYMED 2 4.3 18:33:12 12° N 18:37:08 52° WNW 18:41:20 10° SSW
Cosmos 1697 Rocket 2.9 18:31:52 10° SSW 18:37:29 70° WNW 18:41:05 23° NNE
Cosmos 1515 4.3 18:34:25 10° SSW 18:38:08 55° W 18:39:54 28° NNW
H-2A R/B 4.2 18:38:47 10° S 18:39:08 11° SSE 18:39:08 11° SSE
NOSS 3-4 (A) 3.5 18:36:29 10° SW 18:42:41 78° NW 18:45:48 33° NNE
NOSS 3-4 (C) 3.5 18:36:34 10° SW 18:42:47 79° NW 18:45:51 33° NNE
DMSP B5D1-3 4.5 18:40:40 23° NNE 18:43:56 85° WNW 18:49:02 10° SSW
Okean 2 3.9 18:42:23 10° SSW 18:46:24 57° W 18:48:05 32° NNW
ERS-2 3.9 18:52:41 10° SSW 18:55:58 32° W 18:59:19 10° NW
SPOT 3 Rocket 4.4 18:54:11 10° S 18:59:11 49° W 19:04:12 10° NNW
BREEZE-M DEB (TANK) 4.1 18:57:40 10° WNW 19:01:10 88° SW 19:02:42 53° SE
FengYun 1-2 T 4.1 18:56:22 10° SSE 19:01:59 86° ENE 19:07:40 10° NNW
CENTAUR R/B 3.1 18:54:50 10° NNW 19:02:41 63° NE 19:04:34 51° E
Thor Agena Rocket 4.0 19:12:21 51° S 19:12:21 51° S 19:16:16 10° SSW
Cosmos 2251 Rocket 4.3 19:10:08 10° NNW 19:13:36 42° NNW 19:13:36 42° NNW
S3M 3.8 19:10:36 10° S 19:16:43 89° W 19:17:04 81° N
Cosmos 1980 Rocket 2.7 19:12:58 10° SW 19:18:32 56° WNW 19:19:35 49° NNW
Cosmos 1066 Rocket 4.4 19:13:42 10° SSW 19:19:12 67° W 19:19:39 63° NW
Cosmos 2344 4.0 19:35:02 10° SSW 19:40:34 49° S 19:40:34 49° S
SL-16 R/B 4.3 19:54:05 10° SSW 19:55:26 18° SSW 19:55:26 18° SSW
Cosmos 2322 Rocket 4.5 19:59:16 10° SSW 20:00:14 15° SSW 20:00:14 15° SSW
CENTAUR R/B 4.4 20:46:06 10° NW 20:51:51 33° W 20:51:51 33° W
